This demonstration page uses our WeatherBlox Daily Observations layout. Learn more.

39.92423, -83.80882

Hourly Observations for April 16, 2017

Temp ( °F °C ) Dew Point ( °F °C ) Humidity (%) Winds ( mph kmh ) Pressure ( in mb ) Visibility ( mi km ) Precip ( " mm )
12:56 am 00:56 Partly Cloudy 66 18.9 52 11.1 61 61 S 7 11 30.02 1017 10 16.0934 0 0
1:56 am 01:56 Mostly Cloudy 67 19.4 52 11.1 59 59 SSW 7 11 30.01 1016 10 16.0934 0 0
2:56 am 02:56 Mostly Cloudy 66 18.9 53 11.7 63 63 SSW 10 17 30.01 1016 10 16.0934 0 0
3:56 am 03:56 Mostly Cloudy 66 18.9 53 11.7 63 63 SSW 12 19 29.99 1016 10 16.0934 0 0
4:56 am 04:56 Mostly Cloudy 65 18.3 53 11.7 66 66 SSW 10 17 29.99 1016 10 16.0934 0 0
5:56 am 05:56 Clear 65 18.3 53 11.7 66 66 SSW 13 20 29.98 1015 10 16.0934 0 0
6:56 am 06:56 Sunny 65 18.3 54 12.2 68 68 SSW 14 22 29.98 1015 10 16.0934 0 0
7:56 am 07:56 Cloudy 66 18.9 55 12.8 68 68 SW 17 28 30 1016 10 16.0934 0 0
8:56 am 08:56 Mostly Cloudy 68 20 56 13.3 65 65 SW 21 33 30 1016 10 16.0934 0 0
9:56 am 09:56 Partly Cloudy 70 21.1 58 14.4 66 66 SW 21 33 29.98 1015 10 16.0934 0 0
10:56 am 10:56 Cloudy 70 21.1 58 14.4 66 66 WSW 23 37 30 1016 10 16.0934 0 0
11:56 am 11:56 Mostly Cloudy 74 23.3 59 15 60 60 SW 24 39 29.99 1016 10 16.0934 0 0
12:56 pm 12:56 Sunny 75 23.9 59 15 58 58 WSW 18 30 29.98 1015 10 16.0934 0 0
1:56 pm 13:56 Partly Cloudy 76 24.4 57 13.9 52 52 W 22 35 29.97 1015 10 16.0934 0 0
2:56 pm 14:56 Mostly Cloudy 77 25 56 13.3 48 48 W 21 33 29.97 1015 10 16.0934 0 0
3:56 pm 15:56 Mostly Cloudy 78 25.6 56 13.3 47 47 W 16 26 29.97 1015 10 16.0934 0 0
4:56 pm 16:56 Sunny 77 25 56 13.3 48 48 W 18 30 29.97 1015 10 16.0934 0 0
5:56 pm 17:56 Mostly Cloudy 76 24.4 54 12.2 47 47 W 17 28 29.96 1015 10 16.0934 0 0
6:56 pm 18:56 Partly Cloudy 74 23.3 55 12.8 52 52 WNW 18 30 29.97 1015 10 16.0934 0 0
7:56 pm 19:56 Cloudy 71 21.7 55 12.8 57 57 WNW 8 13 30 1016 10 16.0934 0 0
8:56 pm 20:56 Cloudy 64 17.8 59 15 84 84 WSW 8 13 30.03 1017 10 16.0934 0.01 0.254
9:56 pm 21:56 Cloudy 63 17.2 59 15 87 87 SW 10 17 30.05 1018 10 16.0934 0 0.0254
10:56 pm 22:56 Cloudy 62 16.7 60 15.6 93 93 SW 12 19 30.05 1018 10 16.0934 0 0
11:56 pm 23:56 Cloudy 62 16.7 60 15.6 93 93 WSW 8 13 30.04 1017 10 16.0934 0 0

Powered by AerisWeather